DW2468 Weather Reports


time (UTC)temp
C
wind
direction
speed
KPH
gust
KPH
rain 1hr
cm
rain 24hr
cm
rain mn
cm
humidity
%
barometer
mb
20260506184508 12 217 6.4 11.3 0.00 0.00 0.00 90 1017.0
20260506183008 12 237 9.7 17.7 0.00 0.00 0.00 90 1017.2
20260506181507 12 144 9.7 16.1 0.00 0.00 0.00 90 1017.0
20260506180006 12 234 8.0 14.5 0.00 0.00 0.00 91 1017.0
20260506174505 12 225 12.9 20.9 0.00 0.00 0.00 91 1017.1
20260506173004 12 227 6.4 14.5 0.00 0.00 0.00 91 1016.9
20260506171503 12 247 3.2 14.5 0.00 0.00 0.00 91 1016.9
20260506170004 12 163 4.8 11.3 0.00 0.00 0.00 90 1016.8
20260506164503 12 235 6.4 19.3 0.00 0.00 0.00 91 1016.8
20260506163003 11 250 6.4 12.9 0.00 0.00 0.00 90 1016.8
20260506161605 12 190 4.8 9.7 0.00 0.00 0.00 90 1016.9
20260506160103 11 150 6.4 17.7 0.00 0.00 0.00 91 1016.9
20260506154602 11 184 12.9 19.3 0.00 0.00 0.00 90 1016.9
20260506153055 11 184 9.7 16.1 0.00 0.00 0.00 90 1016.7
20260506151553 11 213 11.3 19.3 0.00 0.00 0.00 90 1016.5
20260506150051 11 215 8.0 12.9 0.00 0.00 0.00 90 1016.2
20260506144548 11 222 4.8 16.1 0.00 0.00 0.00 90 1016.2
20260506143046 11 217 6.4 16.1 0.00 0.00 0.00 90 1015.9
20260506141553 11 199 4.8 19.3 0.00 0.00 0.00 90 1016.0
20260506140054 11 211 4.8 16.1 0.00 0.00 0.00 90 1016.0
20260506134543 11 186 8.0 14.5 0.00 0.00 0.00 90 1015.8
20260506133042 11 188 4.8 11.3 0.00 0.00 0.00 90 1015.5
20260506131540 11 161 4.8 12.9 0.00 0.00 0.00 90 1015.2
20260506130039 11 206 6.4 12.9 0.00 0.00 0.00 90 1015.2
20260506124538 11 192 6.4 11.3 0.00 0.00 0.00 91 1015.3
20260506123036 11 199 4.8 12.9 0.00 0.00 0.00 91 1015.4
20260506121533 11 225 4.8 12.9 0.00 0.00 0.00 91 1015.3
20260506120034 11 214 4.8 9.7 0.00 0.00 0.00 91 1014.9
20260506114529 11 165 6.4 12.9 0.00 0.00 0.00 91 1014.7
20260506113028 11 208 6.4 16.1 0.00 0.00 0.00 91 1014.7
20260506111528 11 199 4.8 9.7 0.00 0.00 0.00 91 1014.7
20260506110023 11 229 6.4 14.5 0.00 0.00 0.00 91 1014.6
20260506104520 11 211 4.8 12.9 0.00 0.00 0.00 90 1014.4
20260506103021 11 213 6.4 16.1 0.00 0.00 0.00 90 1014.1
20260506101517 11 213 6.4 9.7 0.00 0.00 0.00 90 1014.1
20260506100013 11 216 6.4 12.9 0.00 0.00 0.00 90 1014.0
20260506094510 11 231 8.0 14.5 0.00 0.00 0.00 90 1013.7
20260506093013 11 206 6.4 11.3 0.00 0.00 0.00 90 1013.6
20260506091505 11 209 4.8 9.7 0.00 0.00 0.00 89 1013.7
20260506090004 11 225 4.8 9.7 0.00 0.00 0.00 90 1013.4
20260506084506 11 179 4.8 8.0 0.00 0.00 0.00 89 1013.4
20260506083001 11 200 4.8 11.3 0.00 0.00 0.00 89 1013.4
20260506081659 12 202 4.8 11.3 0.00 0.00 0.00 88 1013.2
20260506080110 12 211 6.4 12.9 0.00 0.00 0.00 88 1013.1
20260506073059 12 227 4.8 9.7 0.00 0.00 0.00 88 1012.9
20260506071547 12 177 4.8 11.3 0.00 0.00 0.00 87 1012.9
20260506061555 13 184 4.8 11.3 0.00 0.00 0.00 86 1012.6
20260506044537 13 194 4.8 9.7 0.00 0.00 0.00 85 1012.1
20260506043037 13 223 4.8 11.3 0.00 0.00 0.00 84 1012.0
20260506041540 13 203 4.8 11.3 0.00 0.00 0.00 84 1011.7
20260506040037 13 217 4.8 11.3 0.00 0.00 0.00 84 1011.6
20260506034536 13 217 6.4 12.9 0.00 0.00 0.00 84 1011.3
20260506033035 14 210 4.8 14.5 0.00 0.00 0.00 84 1011.3
20260506031535 14 198 3.2 14.5 0.00 0.00 0.00 83 1011.3
20260506030035 15 209 6.4 11.3 0.00 0.00 0.00 82 1011.2
20260506024533 15 205 4.8 11.3 0.00 0.00 0.00 81 1011.2
20260506023036 15 180 4.8 22.5 0.00 0.00 0.00 80 1011.2
20260506021533 16 207 6.4 19.3 0.00 0.00 0.00 79 1011.1
20260506020105 16 236 11.3 22.5 0.00 0.00 0.00 78 1011.2
20260506014531 17 192 8.0 19.3 0.00 0.00 0.00 76 1011.2
20260506013031 17 246 9.7 19.3 0.00 0.00 0.00 75 1011.2
20260506011533 17 223 9.7 22.5 0.00 0.00 0.00 76 1011.2
20260506010031 17 198 9.7 19.3 0.00 0.00 0.00 76 1011.3
20260506004528 17 212 11.3 20.9 0.00 0.00 0.00 76 1011.3
20260506003028 17 176 12.9 22.5 0.00 0.00 0.00 77 1011.3
20260506001528 17 205 14.5 24.1 0.00 0.00 0.00 76 1011.3
20260506000042 18 234 11.3 20.9 0.00 0.00 0.00 78 1011.5
20260505234525 18 183 11.3 19.3 0.00 0.00 0.00 77 1011.6
20260505233024 17 208 9.7 19.3 0.00 0.00 0.00 79 1011.7
20260505231529 17 219 14.5 22.5 0.00 0.00 0.00 78 1011.8
20260505230039 17 202 12.9 25.7 0.00 0.00 0.00 78 1011.9
20260505224523 17 218 12.9 24.1 0.00 0.00 0.00 79 1012.0
20260505223022 17 224 14.5 24.1 0.00 0.00 0.00 79 1012.2
20260505221521 17 220 9.7 25.7 0.00 0.00 0.00 79 1012.3
20260505220021 17 173 9.7 25.7 0.00 0.00 0.00 79 1012.3
20260505214520 17 231 12.9 29.0 0.00 0.00 0.00 79 1012.4
20260505213021 17 146 9.7 29.0 0.00 0.00 0.00 80 1012.4
20260505211527 17 202 12.9 29.0 0.00 0.00 0.00 78 1012.5
20260505210016 17 225 9.7 20.9 0.00 0.00 0.00 80 1012.8
20260505204514 17 259 12.9 29.0 0.00 0.00 0.00 80 1012.8
20260505203015 17 215 12.9 29.0 0.00 0.00 0.00 81 1012.6
20260505201510 16 211 12.9 22.5 0.00 0.00 0.00 80 1012.7
20260505200009 16 219 19.3 29.0 0.00 0.00 0.00 81 1012.8
20260505194507 16 179 14.5 25.7 0.00 0.00 0.00 82 1012.9
20260505193006 16 194 14.5 30.6 0.00 0.00 0.00 82 1012.9
20260505191505 16 210 11.3 29.0 0.00 0.00 0.00 84 1012.9
20260505190004 16 173 14.5 25.7 0.00 0.00 0.00 83 1012.8